Погода в Богуславце

Россия / Приморский край     45°53′44″N   134°51′22″E
темп.,
°C
ветер,
м/с
пор.,
м/с
влажн.,
%
обл.,
%
осадки,
мм/ч
давл.,
гПа
погр.,
м
8 марта, пн
пн801:00−11юз2495100 0.1 1025128
04:00−12зюз3796100 0.3 1026272
07:00−13зюз2497100 0.1 1027148
10:00−10зюз238495 0.1 1028321
13:00−5зюз346763 0.0 1028728
16:00−4з347032 0.0 1026639
19:00−9ссз00880 0.0 102621
22:00−10юв22900 0.0 102621
9 марта, вт
вт901:00−10юв22860 0.0 102429
04:00−11юв22830 0.0 102229
07:00−10юв228477 0.0 101824
10:00−1ю3117664 0.0 1015633
13:00+4юз613640 0.0 10111617
16:00+2зюз7137350 0.2 10101624
19:00−3з4137667 0.1 1012968
22:00−5зсз6138183 0.4 10161054
10 марта, ср
ср1001:00−8зюз3128689 0.0 1018768
04:00−8з3138590 0.0 1021828
07:00−9зюз388896 0.0 1024258
10:00−6з367577 0.0 1026606
13:00−3з34676 0.0 1026775
16:00−1зюз34664 0.0 1025790
19:00−5юз12780 0.0 102621
22:00−5ююв227747 0.0 102738
11 марта, чт
чт1101:00−7юв237999 0.0 102565
04:00−7ююв227694 0.0 102427
07:00−7ю128689 0.0 102521
10:00−3зюз358144 0.0 1025398
13:000з34687 0.0 1026818
16:00+1зсз23658 0.0 1026897
19:00−3з22916 0.0 102757
22:00−5юз11953 0.0 102921
12 марта, пт
пт1201:00−6ююз01960 0.0 103021
04:00−7ю00977 0.0 103021
07:00−8ююв019613 0.0 103221
10:00−4ююз117914 0.0 1032259
13:00+1зсз11578 0.0 1032598
16:00+2зсз12504 0.0 1030721
19:00−2з12700 0.0 103121
22:00−3ююв11730 0.0 103221